Terminal Aerodrome Forecast
Issued by NWS Omaha/Valley, NE

Home | Current Version | Previous Version | Text Only | Print | Product List | Glossary On
Versions: 1 2 3 4 5 6 7 8 9 10 11 12 13 14 15 16 17 18 19 20 21 22 23 24 25 26 27 28 29 30 31 32 33 34 35 36 37 38
000
FTUS43 KOAX 201720
TAFLNK
TAF
KLNK 201720Z 2018/2118 17013G20KT P6SM BKN250
     FM210200 17012KT P6SM SCT250
     FM210600 18010KT P6SM BKN250
     FM211500 20012KT P6SM SCT250=

USA.gov is the U.S. government's official web portal to all federal, state and local government web resources and services.